{"data":{"norad_id":20442,"intl_designator":"1990-005G","name":"LUSAT (LO-19)","alt_names":[],"object_type":"PAYLOAD","status":"ACTIVE","operator":null,"country":"ARGN","launch_date":"1990-01-22","launch_site_code":"FRGUI","launch_vehicle":null,"mission":null,"orbit_class":"UNKNOWN","rcs_meters":0.1459,"size_class":null,"mass_kg":null,"dimensions":null,"purposes":["comms"],"wikipedia_slug":null,"has_3d_model":false,"image_url":null,"decayed_at":null,"tle_current":{"epoch":"2026-09-20T01:35:48.609312Z","epoch_age_seconds":48711,"freshness":"FRESH","line1":"1 20442U 90005G   26263.06653483  .00000040  00000+0  30961-4 0  9996","line2":"2 20442  98.8820 287.4719 0010507 289.6266  70.3784 14.34144701915990","mean_motion":14.34144701,"eccentricity":0.0010507,"inclination_deg":98.882,"raan_deg":287.4719,"arg_perigee_deg":289.6266,"mean_anomaly_deg":70.3784,"bstar":3.0961e-5,"rev_number":91599,"period_min":100.40827811837,"perigee_km":770.39128360769,"apogee_km":785.42900107261,"semimajor_km":7156.0471423402,"source":"CELESTRAK","updated_at":"2026-09-20T09:00:45.226815Z"}}}